weather.gov     
National Weather Service

Terminal Aerodrome Forecast
NWS Homepage
This page is being discontinued on March 12, 2014.
The same data is available at this site. Please update your bookmarks.
Thank you, and we apologize for the inconvenience.
Please send an email to SR-SRH.Webmaster@noaa.gov with any concerns.


Current Version
Previous Version:    01  02  03  04  05  06  07  08  09  10  11  12  13  14  15  16  17  18  19  20  21  22  23  24  25  26  27  28  29  30  
   31  
[Printable]
732
FTUS44 KMRX 300526
TAFTYS
TAF
KTYS 300526Z 3006/0106 06003KT P6SM SKC
     FM300700 00000KT 5SM BR SKC
     FM300900 00000KT 2SM BR SCT004
     FM301230 00000KT 4SM BR FEW006
     FM301330 30004KT P6SM SCT250
     FM010100 00000KT P6SM SKC=


732
FTUS44 KMRX 300526
TAFTYS
TAF
KTYS 300526Z 3006/0106 06003KT P6SM SKC
     FM300700 00000KT 5SM BR SKC
     FM300900 00000KT 2SM BR SCT004
     FM301230 00000KT 4SM BR FEW006
     FM301330 30004KT P6SM SCT250
     FM010100 00000KT P6SM SKC=




U.S. Dept. of Commerce
NOAA National Weather Service
1325 East West Highway
Silver Spring, MD 20910
E-mail: w-nws.webmaster@noaa.gov
Page last modified: May 16, 2007
NATIONAL WEATHER SERVICE: for Safety, for Work, for Fun - FOR LIFE